Time,TemperatureF,DewpointF,PressureIn,WindDirection,WindDirectionDegrees,WindSpeedMPH,WindSpeedGustMPH,Humidity,HourlyPrecipIn,Conditions,Clouds,dailyrainin,SoftwareType,DateUTC
2013-04-03 00:00:00,66.1,60.0,30.10,ESE,107,0.0,0.0,81,0.00,,,0.00,VWS V14.01,2013-04-03 04:00:00,
2013-04-03 00:05:00,66.0,60.0,30.10,ESE,107,0.0,0.0,81,0.00,,,0.00,VWS V14.01,2013-04-03 04:05:00,
2013-04-03 00:10:00,65.7,59.8,30.10,ESE,107,0.0,0.0,81,0.00,,,0.00,VWS V14.01,2013-04-03 04:10:00,
2013-04-03 00:15:00,66.0,60.2,30.10,ESE,107,0.0,0.0,82,0.00,,,0.00,VWS V14.01,2013-04-03 04:15:00,
2013-04-03 00:20:00,65.8,60.1,30.10,ESE,107,0.0,0.0,82,0.00,,,0.00,VWS V14.01,2013-04-03 04:20:00,
2013-04-03 00:25:00,65.6,59.9,30.10,ESE,107,0.0,0.0,82,0.00,,,0.00,VWS V14.01,2013-04-03 04:25:00,
2013-04-03 00:30:00,65.4,59.8,30.10,ESE,107,0.0,0.0,82,0.00,,,0.00,VWS V14.01,2013-04-03 04:30:00,
2013-04-03 00:35:00,65.6,60.1,30.10,ESE,107,0.0,0.0,82,0.00,,,0.00,VWS V14.01,2013-04-03 04:35:00,
2013-04-03 00:40:00,65.2,59.9,30.10,ESE,107,0.0,0.0,83,0.00,,,0.00,VWS V14.01,2013-04-03 04:40:00,
2013-04-03 00:45:00,65.3,60.0,30.10,ESE,107,0.0,0.0,83,0.00,,,0.00,VWS V14.01,2013-04-03 04:45:00,
2013-04-03 00:50:00,65.1,59.8,30.11,ESE,107,0.0,0.0,83,0.00,,,0.00,VWS V14.01,2013-04-03 04:50:00,
2013-04-03 00:55:00,64.9,59.7,30.11,ESE,107,0.0,0.0,83,0.00,,,0.00,VWS V14.01,2013-04-03 04:55:00,
2013-04-03 01:00:00,64.5,59.4,30.11,ESE,107,0.0,0.0,84,0.00,,,0.00,VWS V14.01,2013-04-03 05:00:00,
2013-04-03 01:05:00,64.7,59.8,30.11,ESE,107,0.0,0.0,84,0.00,,,0.00,VWS V14.01,2013-04-03 05:05:00,
2013-04-03 01:10:00,64.7,60.0,30.10,ESE,107,0.0,0.0,85,0.00,,,0.00,VWS V14.01,2013-04-03 05:10:00,
2013-04-03 01:15:00,64.1,59.5,30.11,ESE,107,0.0,0.0,85,0.00,,,0.00,VWS V14.01,2013-04-03 05:15:00,
2013-04-03 01:20:00,64.4,59.9,30.11,ESE,107,0.0,0.0,85,0.00,,,0.00,VWS V14.01,2013-04-03 05:20:00,
2013-04-03 01:25:00,64.4,59.9,30.11,ESE,107,0.0,0.0,85,0.00,,,0.00,VWS V14.01,2013-04-03 05:25:00,
2013-04-03 01:30:00,63.9,59.5,30.11,ESE,107,0.0,0.0,86,0.00,,,0.00,VWS V14.01,2013-04-03 05:30:00,
2013-04-03 01:35:00,64.2,59.9,30.10,ESE,107,0.0,0.0,86,0.00,,,0.00,VWS V14.01,2013-04-03 05:35:00,
2013-04-03 01:40:00,63.4,59.0,30.10,ESE,107,0.0,0.0,86,0.00,,,0.00,VWS V14.01,2013-04-03 05:40:00,
2013-04-03 01:45:00,63.8,59.4,30.09,ESE,107,0.0,0.0,86,0.00,,,0.00,VWS V14.01,2013-04-03 05:45:00,
2013-04-03 01:50:00,63.9,59.6,30.09,ESE,107,0.0,0.0,86,0.00,,,0.00,VWS V14.01,2013-04-03 05:50:00,
2013-04-03 01:55:00,63.4,59.2,30.09,ESE,107,0.0,0.0,86,0.00,,,0.00,VWS V14.01,2013-04-03 05:55:00,
2013-04-03 02:00:00,63.7,59.5,30.10,ESE,107,0.0,0.0,86,0.00,,,0.00,VWS V14.01,2013-04-03 06:00:00,
2013-04-03 02:05:00,63.5,59.4,30.09,ESE,107,0.0,0.0,87,0.00,,,0.00,VWS V14.01,2013-04-03 06:05:00,
2013-04-03 02:10:00,62.9,58.9,30.09,ESE,107,0.0,0.0,87,0.00,,,0.00,VWS V14.01,2013-04-03 06:10:00,
2013-04-03 02:15:00,63.1,59.2,30.08,ESE,107,0.0,0.0,87,0.00,,,0.00,VWS V14.01,2013-04-03 06:15:00,
2013-04-03 02:20:00,62.9,59.2,30.08,ESE,107,0.0,0.0,88,0.00,,,0.00,VWS V14.01,2013-04-03 06:20:00,
2013-04-03 02:25:00,62.7,59.0,30.08,ESE,107,0.0,0.0,88,0.00,,,0.00,VWS V14.01,2013-04-03 06:25:00,
2013-04-03 02:30:00,62.7,59.0,30.08,ESE,107,0.0,0.0,88,0.00,,,0.00,VWS V14.01,2013-04-03 06:30:00,
2013-04-03 02:35:00,63.1,59.4,30.08,ESE,107,0.0,0.0,88,0.00,,,0.00,VWS V14.01,2013-04-03 06:35:00,
2013-04-03 02:40:00,62.8,59.1,30.08,ESE,107,0.0,0.0,88,0.00,,,0.00,VWS V14.01,2013-04-03 06:40:00,
2013-04-03 02:45:00,62.9,59.3,30.08,ESE,107,0.0,0.0,88,0.00,,,0.00,VWS V14.01,2013-04-03 06:45:00,
2013-04-03 02:50:00,62.6,59.0,30.08,ESE,107,0.0,0.0,88,0.00,,,0.00,VWS V14.01,2013-04-03 06:50:00,
2013-04-03 02:55:00,62.5,59.0,30.08,ESE,107,0.0,0.0,88,0.00,,,0.00,VWS V14.01,2013-04-03 06:55:00,
2013-04-03 03:00:00,62.7,59.1,30.08,ESE,107,0.0,0.0,88,0.00,,,0.00,VWS V14.01,2013-04-03 07:00:00,
2013-04-03 03:05:00,62.7,59.2,30.08,ESE,107,0.0,0.0,88,0.00,,,0.00,VWS V14.01,2013-04-03 07:05:00,
2013-04-03 03:10:00,62.8,59.2,30.08,ESE,107,0.0,0.0,88,0.00,,,0.00,VWS V14.01,2013-04-03 07:10:00,
2013-04-03 03:15:00,62.1,58.5,30.08,ESE,107,0.0,0.0,88,0.00,,,0.00,VWS V14.01,2013-04-03 07:15:00,
2013-04-03 03:20:00,62.5,59.0,30.08,ESE,107,0.0,0.0,88,0.00,,,0.00,VWS V14.01,2013-04-03 07:20:00,
2013-04-03 03:25:00,62.4,59.0,30.07,ESE,107,0.0,0.0,89,0.00,,,0.00,VWS V14.01,2013-04-03 07:25:00,
2013-04-03 03:30:00,62.1,58.8,30.07,ESE,107,0.0,0.0,89,0.00,,,0.00,VWS V14.01,2013-04-03 07:30:00,
2013-04-03 03:35:00,62.0,58.8,30.06,ESE,107,0.0,0.0,89,0.00,,,0.00,VWS V14.01,2013-04-03 07:35:00,
2013-04-03 03:40:00,62.1,59.0,30.06,ESE,107,0.0,0.0,89,0.00,,,0.00,VWS V14.01,2013-04-03 07:40:00,
2013-04-03 03:45:00,61.8,58.6,30.06,ESE,107,0.0,0.0,89,0.00,,,0.00,VWS V14.01,2013-04-03 07:45:00,
2013-04-03 03:50:00,62.0,58.8,30.06,ESE,107,0.0,0.0,89,0.00,,,0.00,VWS V14.01,2013-04-03 07:50:00,
2013-04-03 03:55:00,61.6,58.5,30.05,ESE,107,0.0,0.0,90,0.00,,,0.00,VWS V14.01,2013-04-03 07:55:00,
2013-04-03 04:00:00,61.8,58.8,30.05,ESE,107,0.0,0.0,90,0.00,,,0.00,VWS V14.01,2013-04-03 08:00:00,
2013-04-03 04:05:00,61.4,58.4,30.05,ESE,107,0.0,0.0,90,0.00,,,0.00,VWS V14.01,2013-04-03 08:05:00,
2013-04-03 04:10:00,61.9,58.9,30.05,ESE,107,0.0,0.0,90,0.00,,,0.00,VWS V14.01,2013-04-03 08:10:00,
2013-04-03 04:15:00,61.9,59.0,30.05,ESE,107,0.0,0.0,90,0.00,,,0.00,VWS V14.01,2013-04-03 08:15:00,
2013-04-03 04:20:00,61.8,58.8,30.05,ESE,107,0.0,0.0,90,0.00,,,0.00,VWS V14.01,2013-04-03 08:20:00,
2013-04-03 04:25:00,61.5,58.5,30.05,ESE,107,0.0,0.0,90,0.00,,,0.00,VWS V14.01,2013-04-03 08:25:00,
2013-04-03 04:30:00,61.6,58.7,30.05,ESE,107,0.0,0.0,90,0.00,,,0.00,VWS V14.01,2013-04-03 08:30:00,
2013-04-03 04:35:00,61.3,58.4,30.05,ESE,107,0.0,0.0,90,0.00,,,0.00,VWS V14.01,2013-04-03 08:35:00,
2013-04-03 04:40:00,61.8,58.9,30.05,ESE,107,0.0,0.0,90,0.00,,,0.00,VWS V14.01,2013-04-03 08:40:00,
2013-04-03 04:45:00,61.6,58.7,30.05,ESE,107,0.0,0.0,90,0.00,,,0.00,VWS V14.01,2013-04-03 08:45:00,
2013-04-03 04:50:00,61.9,58.9,30.05,ESE,107,0.0,0.0,90,0.00,,,0.00,VWS V14.01,2013-04-03 08:50:00,
2013-04-03 04:55:00,61.8,58.8,30.04,ESE,107,0.0,0.0,90,0.00,,,0.00,VWS V14.01,2013-04-03 08:55:00,
2013-04-03 05:00:00,61.9,58.9,30.05,ESE,107,0.0,0.0,90,0.00,,,0.00,VWS V14.01,2013-04-03 09:00:00,
2013-04-03 05:05:00,62.0,59.0,30.04,ESE,107,0.0,0.0,90,0.00,,,0.00,VWS V14.01,2013-04-03 09:05:00,
2013-04-03 05:10:00,61.7,58.8,30.04,ESE,107,0.0,0.0,90,0.00,,,0.00,VWS V14.01,2013-04-03 09:10:00,
2013-04-03 05:15:00,61.5,58.6,30.05,ESE,107,0.0,0.0,90,0.00,,,0.00,VWS V14.01,2013-04-03 09:15:00,
2013-04-03 05:20:00,61.4,58.5,30.05,ESE,107,0.0,0.0,90,0.00,,,0.00,VWS V14.01,2013-04-03 09:20:00,
2013-04-03 05:25:00,61.7,58.9,30.05,ESE,107,0.0,0.0,90,0.00,,,0.00,VWS V14.01,2013-04-03 09:25:00,
2013-04-03 05:30:00,61.3,58.5,30.05,ESE,107,0.0,0.0,91,0.00,,,0.00,VWS V14.01,2013-04-03 09:30:00,
2013-04-03 05:35:00,61.7,59.0,30.05,ESE,107,0.0,0.0,91,0.00,,,0.00,VWS V14.01,2013-04-03 09:35:00,
2013-04-03 05:40:00,61.4,58.7,30.05,ESE,107,0.0,0.0,91,0.00,,,0.00,VWS V14.01,2013-04-03 09:40:00,
2013-04-03 05:45:00,61.5,58.8,30.05,ESE,107,0.0,0.0,91,0.00,,,0.00,VWS V14.01,2013-04-03 09:45:00,
2013-04-03 05:50:00,61.6,59.0,30.05,ESE,107,0.0,0.0,91,0.00,,,0.00,VWS V14.01,2013-04-03 09:50:00,
2013-04-03 05:55:00,61.6,59.0,30.05,ESE,107,0.0,0.0,91,0.00,,,0.00,VWS V14.01,2013-04-03 09:55:00,
2013-04-03 06:00:00,61.5,58.9,30.05,ESE,107,0.0,0.0,91,0.00,,,0.00,VWS V14.01,2013-04-03 10:00:00,
2013-04-03 06:05:00,62.1,59.5,30.05,ESE,107,0.0,0.0,91,0.00,,,0.00,VWS V14.01,2013-04-03 10:05:00,
2013-04-03 06:10:00,61.4,58.8,30.06,ESE,107,0.0,0.0,91,0.00,,,0.00,VWS V14.01,2013-04-03 10:10:00,
2013-04-03 06:15:00,61.6,59.0,30.06,ESE,107,0.0,0.0,91,0.00,,,0.00,VWS V14.01,2013-04-03 10:15:00,
2013-04-03 06:20:00,61.4,58.8,30.06,ESE,107,0.0,0.0,91,0.00,,,0.00,VWS V14.01,2013-04-03 10:20:00,
2013-04-03 06:25:00,61.5,58.8,30.06,ESE,107,0.0,0.0,91,0.00,,,0.00,VWS V14.01,2013-04-03 10:25:00,
2013-04-03 06:30:00,61.6,59.0,30.06,ESE,107,0.0,0.0,91,0.00,,,0.00,VWS V14.01,2013-04-03 10:30:00,
2013-04-03 06:35:00,61.7,59.1,30.06,ESE,107,0.0,0.0,91,0.00,,,0.00,VWS V14.01,2013-04-03 10:35:00,
2013-04-03 06:40:00,61.1,58.5,30.06,ESE,107,0.0,0.0,91,0.00,,,0.00,VWS V14.01,2013-04-03 10:40:00,
2013-04-03 06:45:00,61.7,59.2,30.06,ESE,107,0.0,0.0,91,0.00,,,0.00,VWS V14.01,2013-04-03 10:45:00,
2013-04-03 06:50:00,61.1,58.6,30.06,ESE,107,0.0,0.0,92,0.00,,,0.00,VWS V14.01,2013-04-03 10:50:00,
2013-04-03 06:55:00,61.6,59.1,30.06,ESE,107,0.0,0.0,92,0.00,,,0.00,VWS V14.01,2013-04-03 10:55:00,
2013-04-03 07:00:00,61.2,58.7,30.06,ESE,107,0.0,0.0,92,0.00,,,0.00,VWS V14.01,2013-04-03 11:00:00,
2013-04-03 07:05:00,61.5,59.0,30.06,ESE,107,0.0,0.0,92,0.00,,,0.00,VWS V14.01,2013-04-03 11:05:00,
2013-04-03 07:10:00,61.4,59.0,30.06,ESE,107,0.0,0.0,92,0.00,,,0.00,VWS V14.01,2013-04-03 11:10:00,
2013-04-03 07:15:00,61.7,59.3,30.06,ESE,107,0.0,0.0,92,0.00,,,0.00,VWS V14.01,2013-04-03 11:15:00,
2013-04-03 07:20:00,61.3,58.9,30.06,ESE,107,0.0,0.0,92,0.00,,,0.00,VWS V14.01,2013-04-03 11:20:00,
2013-04-03 07:25:00,61.7,59.3,30.06,ESE,107,0.0,0.0,92,0.00,,,0.00,VWS V14.01,2013-04-03 11:25:00,
2013-04-03 07:30:00,62.0,59.6,30.06,ESE,107,0.0,0.0,92,0.00,,,0.00,VWS V14.01,2013-04-03 11:30:00,
2013-04-03 07:35:00,61.9,59.5,30.07,ESE,107,0.0,0.0,92,0.00,,,0.00,VWS V14.01,2013-04-03 11:35:00,
2013-04-03 07:40:00,61.8,59.5,30.07,ESE,107,0.0,0.0,92,0.00,,,0.00,VWS V14.01,2013-04-03 11:40:00,
2013-04-03 07:45:00,62.1,59.8,30.07,ESE,107,0.0,0.0,92,0.00,,,0.00,VWS V14.01,2013-04-03 11:45:00,
2013-04-03 07:50:00,62.0,59.7,30.07,ESE,107,0.0,0.0,92,0.00,,,0.00,VWS V14.01,2013-04-03 11:50:00,
2013-04-03 07:55:00,62.4,60.0,30.07,ESE,107,0.0,0.0,92,0.00,,,0.00,VWS V14.01,2013-04-03 11:55:00,
2013-04-03 08:00:00,62.3,60.0,30.07,ESE,107,0.0,0.0,92,0.00,,,0.00,VWS V14.01,2013-04-03 12:00:00,
2013-04-03 08:05:00,63.0,60.6,30.07,ESE,107,0.0,0.0,92,0.00,,,0.00,VWS V14.01,2013-04-03 12:05:00,
2013-04-03 08:10:00,62.5,60.2,30.07,ESE,107,0.0,0.0,92,0.00,,,0.00,VWS V14.01,2013-04-03 12:10:00,
2013-04-03 08:15:00,62.7,60.3,30.08,ESE,107,0.0,0.0,92,0.00,,,0.00,VWS V14.01,2013-04-03 12:15:00,
2013-04-03 08:20:00,62.8,60.5,30.08,ESE,107,0.0,0.0,92,0.00,,,0.00,VWS V14.01,2013-04-03 12:20:00,
2013-04-03 08:25:00,63.6,61.2,30.08,ESE,107,0.0,0.0,92,0.00,,,0.00,VWS V14.01,2013-04-03 12:25:00,
2013-04-03 08:30:00,63.3,61.0,30.08,ESE,107,0.0,0.0,92,0.00,,,0.00,VWS V14.01,2013-04-03 12:30:00,
2013-04-03 08:35:00,64.1,61.8,30.08,ESE,107,0.0,0.0,92,0.00,,,0.00,VWS V14.01,2013-04-03 12:35:00,
2013-04-03 08:40:00,64.3,61.9,30.08,ESE,107,0.0,0.0,92,0.00,,,0.00,VWS V14.01,2013-04-03 12:40:00,
2013-04-03 08:45:00,64.7,62.3,30.08,ESE,107,0.0,0.0,92,0.00,,,0.00,VWS V14.01,2013-04-03 12:45:00,
2013-04-03 08:50:00,65.1,62.6,30.08,ESE,107,0.0,0.0,92,0.00,,,0.00,VWS V14.01,2013-04-03 12:50:00,
2013-04-03 08:55:00,65.6,62.9,30.08,ESE,107,0.0,0.0,91,0.00,,,0.00,VWS V14.01,2013-04-03 12:55:00,
2013-04-03 09:00:00,66.1,63.3,30.08,ESE,107,0.0,0.0,91,0.00,,,0.00,VWS V14.01,2013-04-03 13:00:00,
2013-04-03 09:05:00,67.2,64.3,30.08,ESE,107,0.0,0.0,90,0.00,,,0.00,VWS V14.01,2013-04-03 13:05:00,
2013-04-03 09:10:00,67.8,64.8,30.07,ESE,107,0.0,0.0,90,0.00,,,0.00,VWS V14.01,2013-04-03 13:10:00,
2013-04-03 09:15:00,68.4,65.1,30.07,ESE,107,0.0,0.0,89,0.00,,,0.00,VWS V14.01,2013-04-03 13:15:00,
2013-04-03 09:20:00,69.5,65.6,30.07,ESE,107,0.0,0.0,87,0.00,,,0.00,VWS V14.01,2013-04-03 13:20:00,
2013-04-03 09:25:00,70.2,65.9,30.07,ESE,107,0.0,0.0,86,0.00,,,0.00,VWS V14.01,2013-04-03 13:25:00,
2013-04-03 09:29:00,70.8,65.7,30.07,ESE,107,0.0,0.0,84,0.00,,,0.00,VWS V14.01,2013-04-03 13:29:00,
2013-04-03 09:34:00,71.6,65.9,30.08,ESE,105,0.0,3.2,82,0.00,,,0.00,VWS V14.01,2013-04-03 13:34:00,
2013-04-03 09:39:00,72.3,66.2,30.08,ESE,105,0.0,0.0,81,0.00,,,0.00,VWS V14.01,2013-04-03 13:39:00,
2013-04-03 09:44:00,73.1,66.4,30.08,SSE,148,0.0,0.0,80,0.00,,,0.00,VWS V14.01,2013-04-03 13:44:00,
2013-04-03 09:49:00,73.9,66.4,30.08,SSE,148,0.0,0.0,78,0.00,,,0.00,VWS V14.01,2013-04-03 13:49:00,
2013-04-03 09:54:00,74.7,66.7,30.08,SSE,148,0.0,0.0,76,0.00,,,0.00,VWS V14.01,2013-04-03 13:54:00,
2013-04-03 09:59:00,75.3,66.6,30.08,South,188,0.0,0.0,74,0.00,,,0.00,VWS V14.01,2013-04-03 13:59:00,
2013-04-03 10:04:00,76.1,66.8,30.08,South,188,0.0,0.0,73,0.00,,,0.00,VWS V14.01,2013-04-03 14:04:00,
2013-04-03 10:09:00,76.8,66.9,30.08,ESE,120,0.0,0.0,72,0.00,,,0.00,VWS V14.01,2013-04-03 14:09:00,
2013-04-03 10:14:00,77.0,66.7,30.08,ESE,120,0.0,0.0,70,0.00,,,0.00,VWS V14.01,2013-04-03 14:14:00,
2013-04-03 10:19:00,77.5,66.8,30.08,ESE,120,0.0,0.0,70,0.00,,,0.00,VWS V14.01,2013-04-03 14:19:00,
2013-04-03 10:24:00,77.8,66.8,30.07,ESE,115,0.0,5.0,69,0.00,,,0.00,VWS V14.01,2013-04-03 14:24:00,
2013-04-03 10:29:00,78.0,66.8,30.07,East,94,0.0,0.0,69,0.00,,,0.00,VWS V14.01,2013-04-03 14:29:00,
2013-04-03 10:34:00,78.2,66.9,30.07,East,93,0.0,0.0,68,0.00,,,0.00,VWS V14.01,2013-04-03 14:34:00,
2013-04-03 10:39:00,78.8,67.3,30.07,East,87,0.0,4.5,68,0.00,,,0.00,VWS V14.01,2013-04-03 14:39:00,
2013-04-03 10:44:00,79.1,67.3,30.07,East,91,3.0,4.2,67,0.00,,,0.00,VWS V14.01,2013-04-03 14:44:00,
2013-04-03 10:49:00,79.2,67.1,30.07,SSE,152,0.0,3.2,67,0.00,,,0.00,VWS V14.01,2013-04-03 14:49:00,
2013-04-03 10:54:00,79.3,67.1,30.07,SSE,165,0.0,2.9,66,0.00,,,0.00,VWS V14.01,2013-04-03 14:54:00,
2013-04-03 10:59:00,79.3,67.3,30.07,SSW,198,5.2,5.5,67,0.00,,,0.00,VWS V14.01,2013-04-03 14:59:00,
2013-04-03 11:04:00,79.7,67.5,30.07,SSW,198,0.0,3.5,66,0.00,,,0.00,VWS V14.01,2013-04-03 15:04:00,
2013-04-03 11:09:00,80.0,67.4,30.07,ESE,115,0.0,3.0,66,0.00,,,0.00,VWS V14.01,2013-04-03 15:09:00,
2013-04-03 11:14:00,80.2,67.2,30.07,ESE,117,0.0,5.0,64,0.00,,,0.00,VWS V14.01,2013-04-03 15:14:00,
2013-04-03 11:19:00,80.5,67.3,30.07,SSE,162,0.0,0.0,64,0.00,,,0.00,VWS V14.01,2013-04-03 15:19:00,
2013-04-03 11:24:00,80.9,67.5,30.07,ESE,122,0.0,0.0,64,0.00,,,0.00,VWS V14.01,2013-04-03 15:24:00,
2013-04-03 11:29:00,81.4,67.1,30.07,ESE,118,1.5,2.6,62,0.00,,,0.00,VWS V14.01,2013-04-03 15:29:00,
2013-04-03 11:34:00,81.4,66.8,30.07,ESE,112,0.0,5.2,61,0.00,,,0.00,VWS V14.01,2013-04-03 15:34:00,
2013-04-03 11:39:00,81.8,66.4,30.06,SSE,148,5.2,5.5,60,0.00,,,0.00,VWS V14.01,2013-04-03 15:39:00,
2013-04-03 11:44:00,82.5,67.5,30.06,ESE,121,0.0,4.3,61,0.00,,,0.00,VWS V14.01,2013-04-03 15:44:00,
2013-04-03 11:49:00,82.5,67.2,30.06,ESE,120,0.0,0.0,60,0.00,,,0.00,VWS V14.01,2013-04-03 15:49:00,
2013-04-03 11:54:00,82.4,67.4,30.05,SE,146,0.0,0.0,61,0.00,,,0.00,VWS V14.01,2013-04-03 15:54:00,
2013-04-03 11:59:00,82.8,67.2,30.05,SE,146,0.0,0.0,59,0.00,,,0.00,VWS V14.01,2013-04-03 15:59:00,
2013-04-03 12:04:00,82.8,67.9,30.05,NNE,32,0.0,0.0,61,0.00,,,0.00,VWS V14.01,2013-04-03 16:04:00,
2013-04-03 12:09:00,83.3,67.3,30.05,SE,129,0.0,0.0,59,0.00,,,0.00,VWS V14.01,2013-04-03 16:09:00,
2013-04-03 12:14:00,83.6,66.9,30.04,South,176,0.0,5.5,57,0.00,,,0.00,VWS V14.01,2013-04-03 16:14:00,
2013-04-03 12:19:00,84.3,67.5,30.05,East,79,0.0,4.5,57,0.00,,,0.00,VWS V14.01,2013-04-03 16:19:00,
2013-04-03 12:24:00,84.0,66.9,30.04,East,79,0.0,0.0,56,0.00,,,0.00,VWS V14.01,2013-04-03 16:24:00,
2013-04-03 12:29:00,83.5,66.8,30.04,SE,134,0.0,0.0,57,0.00,,,0.00,VWS V14.01,2013-04-03 16:29:00,
2013-04-03 12:34:00,83.5,67.2,30.04,SE,134,0.0,0.0,58,0.00,,,0.00,VWS V14.01,2013-04-03 16:34:00,
2013-04-03 12:39:00,83.7,66.9,30.04,ESE,110,0.0,2.8,57,0.00,,,0.00,VWS V14.01,2013-04-03 16:39:00,
2013-04-03 12:44:00,83.6,67.0,30.04,ESE,120,0.0,0.0,57,0.00,,,0.00,VWS V14.01,2013-04-03 16:44:00,
2013-04-03 12:50:00,83.6,66.9,30.04,ESE,120,0.0,0.0,57,0.00,,,0.00,VWS V14.01,2013-04-03 16:50:00,
2013-04-03 12:55:00,83.9,67.7,30.04,ESE,120,0.0,0.0,58,0.00,,,0.00,VWS V14.01,2013-04-03 16:55:00,
2013-04-03 13:00:00,84.6,67.1,30.04,SSE,163,0.0,0.0,56,0.00,,,0.00,VWS V14.01,2013-04-03 17:00:00,
2013-04-03 13:05:00,84.4,66.8,30.04,ESE,107,0.0,0.0,56,0.00,,,0.00,VWS V14.01,2013-04-03 17:05:00,
2013-04-03 13:10:00,84.3,66.8,30.04,SE,127,0.0,0.0,56,0.00,,,0.00,VWS V14.01,2013-04-03 17:10:00,
2013-04-03 13:15:00,84.4,67.5,30.03,SE,127,0.0,0.0,57,0.00,,,0.00,VWS V14.01,2013-04-03 17:15:00,
2013-04-03 13:20:00,84.4,66.7,30.03,ESE,105,0.0,0.0,56,0.00,,,0.00,VWS V14.01,2013-04-03 17:20:00,
2013-04-03 13:25:00,84.2,67.0,30.02,ESE,105,0.0,0.0,56,0.00,,,0.00,VWS V14.01,2013-04-03 17:25:00,
2013-04-03 13:30:00,84.0,67.2,30.02,ESE,105,0.0,0.0,57,0.00,,,0.00,VWS V14.01,2013-04-03 17:30:00,
2013-04-03 13:35:00,83.8,67.3,30.02,ESE,105,0.0,0.0,58,0.00,,,0.00,VWS V14.01,2013-04-03 17:35:00,
2013-04-03 13:40:00,83.9,67.0,30.02,ESE,105,0.0,0.0,57,0.00,,,0.00,VWS V14.01,2013-04-03 17:40:00,
2013-04-03 13:45:00,84.0,67.3,30.02,ESE,115,0.0,0.0,57,0.00,,,0.00,VWS V14.01,2013-04-03 17:45:00,
2013-04-03 13:50:00,83.7,67.1,30.02,ESE,115,0.0,0.0,58,0.00,,,0.00,VWS V14.01,2013-04-03 17:50:00,
2013-04-03 13:55:00,83.4,66.7,30.02,ESE,118,0.0,0.0,57,0.00,,,0.00,VWS V14.01,2013-04-03 17:55:00,
2013-04-03 14:00:00,83.6,67.2,30.02,ESE,118,0.0,0.0,58,0.00,,,0.00,VWS V14.01,2013-04-03 18:00:00,
2013-04-03 14:05:00,83.8,66.9,30.02,ESE,118,0.0,3.4,57,0.00,,,0.00,VWS V14.01,2013-04-03 18:05:00,
2013-04-03 14:10:00,83.8,66.8,30.02,ESE,118,0.0,0.0,57,0.00,,,0.00,VWS V14.01,2013-04-03 18:10:00,
2013-04-03 14:15:00,83.5,66.9,30.01,ESE,108,0.0,0.0,58,0.00,,,0.00,VWS V14.01,2013-04-03 18:15:00,
2013-04-03 14:20:00,83.3,66.5,30.02,ESE,108,0.0,0.0,57,0.00,,,0.00,VWS V14.01,2013-04-03 18:20:00,
2013-04-03 14:25:00,82.9,65.8,30.01,ESE,105,0.0,4.3,56,0.00,,,0.00,VWS V14.01,2013-04-03 18:25:00,
2013-04-03 14:30:00,82.8,66.3,30.01,ESE,105,0.0,0.0,58,0.00,,,0.00,VWS V14.01,2013-04-03 18:30:00,
2013-04-03 14:35:00,82.8,66.1,30.01,NNE,27,0.0,0.0,57,0.00,,,0.00,VWS V14.01,2013-04-03 18:35:00,
2013-04-03 14:40:00,83.1,66.2,30.00,NNE,27,0.0,0.0,57,0.00,,,0.00,VWS V14.01,2013-04-03 18:40:00,
2013-04-03 14:45:00,83.4,66.0,30.00,SE,128,0.0,0.0,56,0.00,,,0.00,VWS V14.01,2013-04-03 18:45:00,
2013-04-03 14:50:00,83.4,65.7,30.01,SE,135,0.0,4.6,55,0.00,,,0.00,VWS V14.01,2013-04-03 18:50:00,
2013-04-03 14:55:00,83.4,66.0,30.01,SE,135,0.0,0.0,56,0.00,,,0.00,VWS V14.01,2013-04-03 18:55:00,
2013-04-03 15:00:00,83.1,65.7,30.02,SE,135,0.0,0.0,56,0.00,,,0.00,VWS V14.01,2013-04-03 19:00:00,
2013-04-03 15:05:00,83.1,65.9,30.02,SE,135,0.0,0.0,56,0.00,,,0.00,VWS V14.01,2013-04-03 19:05:00,
2013-04-03 15:10:00,83.2,66.1,30.01,SE,135,0.0,0.0,56,0.00,,,0.00,VWS V14.01,2013-04-03 19:10:00,
2013-04-03 15:15:00,83.3,66.0,30.01,SE,135,0.0,0.0,56,0.00,,,0.00,VWS V14.01,2013-04-03 19:15:00,
2013-04-03 15:20:00,83.5,66.3,30.01,SE,135,0.0,0.0,56,0.00,,,0.00,VWS V14.01,2013-04-03 19:20:00,
2013-04-03 15:25:00,83.7,66.0,30.01,SE,135,0.0,0.0,55,0.00,,,0.00,VWS V14.01,2013-04-03 19:25:00,
2013-04-03 15:30:00,83.7,65.7,30.01,SSE,158,0.0,0.0,55,0.00,,,0.00,VWS V14.01,2013-04-03 19:30:00,
2013-04-03 15:35:00,83.4,65.7,30.00,ESE,120,0.0,0.0,55,0.00,,,0.00,VWS V14.01,2013-04-03 19:35:00,
2013-04-03 15:40:00,83.4,65.7,30.00,ESE,120,0.0,0.0,55,0.00,,,0.00,VWS V14.01,2013-04-03 19:40:00,
2013-04-03 15:45:00,83.4,65.6,30.00,ESE,120,0.0,0.0,55,0.00,,,0.00,VWS V14.01,2013-04-03 19:45:00,
2013-04-03 15:50:00,83.4,65.8,30.00,ESE,120,0.0,0.0,56,0.00,,,0.00,VWS V14.01,2013-04-03 19:50:00,
2013-04-03 15:55:00,83.0,65.7,29.99,ESE,120,0.0,3.0,56,0.00,,,0.00,VWS V14.01,2013-04-03 19:55:00,
2013-04-03 16:00:00,82.7,65.3,29.99,SSE,158,0.0,0.0,56,0.00,,,0.00,VWS V14.01,2013-04-03 20:00:00,
2013-04-03 16:05:00,82.7,65.4,29.99,NE,44,0.0,0.0,56,0.00,,,0.00,VWS V14.01,2013-04-03 20:05:00,
2013-04-03 16:10:00,82.8,65.5,29.99,NE,44,0.0,0.0,56,0.00,,,0.00,VWS V14.01,2013-04-03 20:10:00,
2013-04-03 16:15:00,82.5,65.1,29.98,SE,139,0.0,0.0,56,0.00,,,0.00,VWS V14.01,2013-04-03 20:15:00,
2013-04-03 16:20:00,82.7,65.1,29.98,SE,139,0.0,0.0,55,0.00,,,0.00,VWS V14.01,2013-04-03 20:20:00,
2013-04-03 16:25:00,82.5,64.6,29.98,SSE,159,0.0,0.0,55,0.00,,,0.00,VWS V14.01,2013-04-03 20:25:00,
2013-04-03 16:30:00,82.6,65.0,29.99,SSE,159,0.0,0.0,55,0.00,,,0.00,VWS V14.01,2013-04-03 20:30:00,
2013-04-03 16:35:00,82.2,64.6,29.99,ENE,59,0.0,4.7,55,0.00,,,0.00,VWS V14.01,2013-04-03 20:35:00,
2013-04-03 16:40:00,81.8,63.8,29.99,ESE,104,0.0,3.4,54,0.00,,,0.00,VWS V14.01,2013-04-03 20:40:00,
2013-04-03 16:45:00,81.5,63.7,29.99,ESE,104,0.0,0.0,55,0.00,,,0.00,VWS V14.01,2013-04-03 20:45:00,
2013-04-03 16:50:00,81.4,63.7,29.99,ESE,104,0.0,0.0,55,0.00,,,0.00,VWS V14.01,2013-04-03 20:50:00,
2013-04-03 16:56:00,81.1,63.3,29.99,East,100,0.0,0.0,55,0.00,,,0.00,VWS V14.01,2013-04-03 20:56:00,
2013-04-03 17:01:00,81.0,63.3,29.99,East,100,0.0,0.0,55,0.00,,,0.00,VWS V14.01,2013-04-03 21:01:00,
2013-04-03 17:06:00,80.9,63.4,29.99,East,100,0.0,0.0,55,0.00,,,0.00,VWS V14.01,2013-04-03 21:06:00,
2013-04-03 17:11:00,80.9,62.9,29.99,East,101,1.9,1.9,54,0.00,,,0.00,VWS V14.01,2013-04-03 21:11:00,
2013-04-03 17:16:00,80.9,62.9,29.98,East,97,0.0,0.0,54,0.00,,,0.00,VWS V14.01,2013-04-03 21:16:00,
2013-04-03 17:21:00,80.7,62.6,29.98,East,97,0.0,0.0,54,0.00,,,0.00,VWS V14.01,2013-04-03 21:21:00,
2013-04-03 17:26:00,80.6,62.3,29.98,East,97,2.3,2.7,54,0.00,,,0.00,VWS V14.01,2013-04-03 21:26:00,
2013-04-03 17:31:00,80.4,61.7,29.98,ESE,121,0.0,4.2,53,0.00,,,0.00,VWS V14.01,2013-04-03 21:31:00,
2013-04-03 17:36:00,80.4,61.3,29.98,ESE,121,0.0,0.0,52,0.00,,,0.00,VWS V14.01,2013-04-03 21:36:00,
2013-04-03 17:41:00,80.1,61.2,29.99,SSE,156,0.0,0.0,52,0.00,,,0.00,VWS V14.01,2013-04-03 21:41:00,
2013-04-03 17:45:00,80.1,61.3,29.99,SSE,156,0.0,0.0,53,0.00,,,0.00,VWS V14.01,2013-04-03 21:45:00,
2013-04-03 17:50:00,79.8,61.4,30.00,SSE,156,0.0,0.0,53,0.00,,,0.00,VWS V14.01,2013-04-03 21:50:00,
2013-04-03 17:55:00,79.8,61.6,29.99,SSE,156,0.0,0.0,54,0.00,,,0.00,VWS V14.01,2013-04-03 21:55:00,
2013-04-03 18:00:00,79.3,61.3,29.99,SSE,156,0.0,2.0,54,0.00,,,0.00,VWS V14.01,2013-04-03 22:00:00,
2013-04-03 18:05:00,79.2,61.5,29.99,SSE,156,0.0,0.0,55,0.00,,,0.00,VWS V14.01,2013-04-03 22:05:00,
2013-04-03 18:10:00,79.0,61.9,29.99,SSE,156,0.0,0.0,56,0.00,,,0.00,VWS V14.01,2013-04-03 22:10:00,
2013-04-03 18:15:00,78.8,62.2,30.00,SSE,156,0.0,0.0,57,0.00,,,0.00,VWS V14.01,2013-04-03 22:15:00,
2013-04-03 18:20:00,78.5,62.2,30.00,SSE,156,0.0,0.0,57,0.00,,,0.00,VWS V14.01,2013-04-03 22:20:00,
2013-04-03 18:25:00,78.3,62.3,30.00,SSE,156,0.0,0.0,58,0.00,,,0.00,VWS V14.01,2013-04-03 22:25:00,
2013-04-03 18:30:00,78.2,62.4,30.00,SSE,156,0.0,0.0,58,0.00,,,0.00,VWS V14.01,2013-04-03 22:30:00,
2013-04-03 18:35:00,78.1,62.6,30.00,SSE,156,0.0,0.0,59,0.00,,,0.00,VWS V14.01,2013-04-03 22:35:00,
2013-04-03 18:40:00,78.0,63.2,30.00,SSE,156,0.0,0.0,60,0.00,,,0.00,VWS V14.01,2013-04-03 22:40:00,
2013-04-03 18:45:00,77.8,64.1,30.00,SSE,156,0.0,0.0,63,0.00,,,0.00,VWS V14.01,2013-04-03 22:45:00,
2013-04-03 18:50:00,77.4,64.9,30.00,SSE,156,0.0,0.0,65,0.00,,,0.00,VWS V14.01,2013-04-03 22:50:00,
2013-04-03 18:55:00,76.9,65.1,30.00,SSE,156,0.0,0.0,67,0.00,,,0.00,VWS V14.01,2013-04-03 22:55:00,
2013-04-03 19:00:00,76.5,65.5,30.00,SSE,156,0.0,0.0,69,0.00,,,0.00,VWS V14.01,2013-04-03 23:00:00,
2013-04-03 19:05:00,76.1,65.7,30.00,SSE,156,0.0,0.0,70,0.00,,,0.00,VWS V14.01,2013-04-03 23:05:00,
2013-04-03 19:10:00,75.7,66.2,30.00,SSE,156,0.0,0.0,72,0.00,,,0.00,VWS V14.01,2013-04-03 23:10:00,
2013-04-03 19:15:00,75.2,66.3,30.00,SSE,156,0.0,0.0,74,0.00,,,0.00,VWS V14.01,2013-04-03 23:15:00,
2013-04-03 19:20:00,74.8,66.3,30.00,SSE,156,0.0,0.0,75,0.00,,,0.00,VWS V14.01,2013-04-03 23:20:00,
2013-04-03 19:25:00,74.6,66.4,30.00,SSE,156,0.0,0.0,76,0.00,,,0.00,VWS V14.01,2013-04-03 23:25:00,
2013-04-03 19:30:00,74.4,66.9,30.01,SSE,156,0.0,0.0,77,0.00,,,0.00,VWS V14.01,2013-04-03 23:30:00,
2013-04-03 19:35:00,74.0,66.6,30.01,SSE,156,0.0,0.0,78,0.00,,,0.00,VWS V14.01,2013-04-03 23:35:00,
2013-04-03 19:40:00,74.0,67.0,30.02,SSE,156,0.0,0.0,79,0.01,,,0.01,VWS V14.01,2013-04-03 23:40:00,
2013-04-03 19:45:00,73.9,67.3,30.02,SSE,156,0.0,0.0,80,0.01,,,0.01,VWS V14.01,2013-04-03 23:45:00,
2013-04-03 19:50:00,73.5,67.8,30.02,SSE,156,0.0,0.0,82,0.02,,,0.02,VWS V14.01,2013-04-03 23:50:00,
2013-04-03 19:55:00,73.0,67.4,30.02,SSE,156,0.0,0.0,83,0.02,,,0.02,VWS V14.01,2013-04-03 23:55:00,
2013-04-03 20:00:00,72.5,67.2,30.02,SSE,156,0.0,0.0,83,0.02,,,0.02,VWS V14.01,2013-04-04 00:00:00,
2013-04-03 20:05:00,72.2,67.2,30.03,SSE,156,0.0,0.0,84,0.02,,,0.02,VWS V14.01,2013-04-04 00:05:00,
2013-04-03 20:10:00,71.9,66.9,30.02,SSE,156,0.0,3.4,84,0.02,,,0.02,VWS V14.01,2013-04-04 00:10:00,
2013-04-03 20:15:00,71.8,67.1,30.03,SSE,156,0.0,0.0,85,0.02,,,0.02,VWS V14.01,2013-04-04 00:15:00,
2013-04-03 20:20:00,71.6,67.0,30.03,SSE,156,0.0,0.0,85,0.02,,,0.02,VWS V14.01,2013-04-04 00:20:00,
2013-04-03 20:25:00,71.6,67.2,30.03,SSE,156,0.0,0.0,86,0.02,,,0.02,VWS V14.01,2013-04-04 00:25:00,
2013-04-03 20:30:00,71.6,67.3,30.03,SSE,156,0.0,0.0,86,0.02,,,0.02,VWS V14.01,2013-04-04 00:30:00,
2013-04-03 20:35:00,71.4,67.1,30.03,SSE,156,0.0,0.0,86,0.02,,,0.02,VWS V14.01,2013-04-04 00:35:00,
2013-04-03 20:40:00,71.4,67.3,30.03,SSE,156,0.0,0.0,87,0.01,,,0.02,VWS V14.01,2013-04-04 00:40:00,
2013-04-03 20:45:00,71.4,67.6,30.03,SSE,156,0.0,0.0,88,0.01,,,0.02,VWS V14.01,2013-04-04 00:45:00,
2013-04-03 20:50:00,71.4,67.7,30.04,SSE,156,0.0,0.0,88,0.01,,,0.03,VWS V14.01,2013-04-04 00:50:00,
2013-04-03 20:55:00,71.3,67.7,30.05,SSE,156,0.0,0.0,88,0.01,,,0.03,VWS V14.01,2013-04-04 00:55:00,
2013-04-03 21:00:00,71.3,67.8,30.05,SSE,156,0.0,0.0,89,0.01,,,0.03,VWS V14.01,2013-04-04 01:00:00,
2013-04-03 21:05:00,71.3,68.0,30.04,SSE,156,0.0,0.0,89,0.03,,,0.05,VWS V14.01,2013-04-04 01:05:00,
2013-04-03 21:10:00,71.4,68.1,30.05,SSE,156,0.0,0.0,89,0.05,,,0.07,VWS V14.01,2013-04-04 01:10:00,
2013-04-03 21:15:00,71.2,68.1,30.04,SSE,156,0.0,0.0,90,0.06,,,0.08,VWS V14.01,2013-04-04 01:15:00,
2013-04-03 21:20:00,71.2,68.2,30.04,SSE,156,0.0,0.0,90,0.06,,,0.08,VWS V14.01,2013-04-04 01:20:00,
2013-04-03 21:25:00,71.2,68.2,30.04,SSE,156,0.0,0.0,90,0.06,,,0.08,VWS V14.01,2013-04-04 01:25:00,
2013-04-03 21:30:00,71.0,68.1,30.05,SSE,156,0.0,0.0,90,0.06,,,0.08,VWS V14.01,2013-04-04 01:30:00,
2013-04-03 21:35:00,71.1,68.2,30.05,SSE,156,0.0,0.0,90,0.06,,,0.08,VWS V14.01,2013-04-04 01:35:00,
2013-04-03 21:40:00,71.1,68.2,30.05,SSE,156,0.0,0.0,91,0.07,,,0.09,VWS V14.01,2013-04-04 01:40:00,
2013-04-03 21:45:00,71.1,68.3,30.05,SSE,156,0.0,0.0,91,0.07,,,0.09,VWS V14.01,2013-04-04 01:45:00,
2013-04-03 21:50:00,70.8,68.1,30.05,SSE,156,0.0,0.0,91,0.08,,,0.10,VWS V14.01,2013-04-04 01:50:00,
2013-04-03 21:55:00,70.8,68.1,30.05,SSE,156,0.0,0.0,91,0.07,,,0.10,VWS V14.01,2013-04-04 01:55:00,
2013-04-03 22:00:00,70.9,68.2,30.07,SSE,156,0.0,0.0,91,0.07,,,0.10,VWS V14.01,2013-04-04 02:00:00,
2013-04-03 22:05:00,71.0,68.3,30.07,SSE,156,0.0,0.0,91,0.06,,,0.10,VWS V14.01,2013-04-04 02:05:00,
2013-04-03 22:10:00,71.0,68.3,30.07,SSE,156,0.0,0.0,91,0.03,,,0.10,VWS V14.01,2013-04-04 02:10:00,
2013-04-03 22:15:00,71.1,68.5,30.06,SSE,156,0.0,0.0,92,0.02,,,0.10,VWS V14.01,2013-04-04 02:15:00,
2013-04-03 22:20:00,70.9,68.3,30.06,SSE,156,0.0,0.0,92,0.02,,,0.10,VWS V14.01,2013-04-04 02:20:00,
2013-04-03 22:25:00,71.0,68.4,30.06,SSE,156,0.0,0.0,91,0.02,,,0.10,VWS V14.01,2013-04-04 02:25:00,
2013-04-03 22:30:00,70.9,68.2,30.07,SSE,156,0.0,0.0,91,0.02,,,0.10,VWS V14.01,2013-04-04 02:30:00,
2013-04-03 22:35:00,71.0,68.3,30.08,SSE,156,0.0,0.0,91,0.02,,,0.10,VWS V14.01,2013-04-04 02:35:00,
2013-04-03 22:40:00,71.0,68.4,30.07,SSE,156,0.0,0.0,92,0.01,,,0.10,VWS V14.01,2013-04-04 02:40:00,
2013-04-03 22:45:00,70.8,68.3,30.06,SSE,156,0.0,0.0,92,0.01,,,0.10,VWS V14.01,2013-04-04 02:45:00,
2013-04-03 22:50:00,70.8,68.2,30.06,SSE,156,0.0,0.0,92,0.00,,,0.10,VWS V14.01,2013-04-04 02:50:00,
2013-04-03 22:55:00,71.0,68.4,30.07,SSE,156,0.0,0.0,91,0.00,,,0.10,VWS V14.01,2013-04-04 02:55:00,
2013-04-03 23:00:00,70.8,68.1,30.07,SSE,156,0.0,0.0,91,0.00,,,0.10,VWS V14.01,2013-04-04 03:00:00,
2013-04-03 23:05:00,71.0,68.3,30.08,SSE,156,0.0,0.0,91,0.01,,,0.11,VWS V14.01,2013-04-04 03:05:00,
2013-04-03 23:10:00,70.8,68.1,30.08,SSE,156,0.0,0.0,91,0.01,,,0.11,VWS V14.01,2013-04-04 03:10:00,
2013-04-03 23:15:00,70.7,67.9,30.09,SSE,156,0.0,0.0,91,0.03,,,0.13,VWS V14.01,2013-04-04 03:15:00,
2013-04-03 23:20:00,70.7,67.9,30.08,SSE,156,0.0,0.0,91,0.10,,,0.20,VWS V14.01,2013-04-04 03:20:00,
2013-04-03 23:25:00,70.3,67.6,30.07,SSE,156,0.0,0.0,91,0.13,,,0.23,VWS V14.01,2013-04-04 03:25:00,
2013-04-03 23:30:00,70.2,67.4,30.08,SSE,156,0.0,0.0,91,0.16,,,0.26,VWS V14.01,2013-04-04 03:30:00,
2013-04-03 23:35:00,70.1,67.4,30.06,SSE,156,0.0,0.0,91,0.22,,,0.32,VWS V14.01,2013-04-04 03:35:00,
2013-04-03 23:40:00,69.8,67.1,30.06,SSE,156,0.0,0.0,91,0.23,,,0.33,VWS V14.01,2013-04-04 03:40:00,
2013-04-03 23:45:00,69.8,67.2,30.05,SSE,156,0.0,0.0,91,0.23,,,0.33,VWS V14.01,2013-04-04 03:45:00,
2013-04-03 23:50:00,69.5,66.9,30.05,SSE,156,0.0,0.0,91,0.23,,,0.33,VWS V14.01,2013-04-04 03:50:00,
2013-04-03 23:55:00,69.5,66.9,30.05,SSE,156,0.0,0.0,92,0.23,,,0.33,VWS V14.01,2013-04-04 03:55:00,